Montgomery, NY

8:28 PM EDT on August 25, 2016 (GMT -0400)
Orange County

Weather History for KMGJ - July, 2012

Change the Weather History Date:

Wednesday, July 18, 2012

  Actual Average (KPOU) Record (KPOU)
Temperature  
Mean Temperature 84 °F 73 °F  
Max Temperature 96 °F 85 °F 100 °F (1991)
Min Temperature 73 °F 61 °F 50 °F (1976)
Degree Days  
Heating Degree Days 0 0  
Month to date heating degree days 0  
Since 1 June heating degree days 49  
Since 1 July heating degree days 0  
Cooling Degree Days 19 8  
Month to date cooling degree days 136  
Year to date cooling degree days 299  
Since 1 June cooling degree days 263  
Growing Degree Days 34 (Base 50)    
Moisture  
Dew Point 72 °F    
Average Humidity 73    
Maximum Humidity 93    
Minimum Humidity 47    
Precipitation  
Precipitation 0.04 in 0.15 in 0.88 in (1984)
Month to date precipitation 2.57  
Year to date precipitation 24.50  
Sea Level Pressure  
Sea Level Pressure 29.81 in    
Wind  
Wind Speed 6 mph (SW)    
Max Wind Speed 17 mph    
Max Gust Speed 23 mph    
Visibility 8 miles    
Events Rain    
T = Trace of Precipitation, MM = Missing Value Source: NWS Daily Summary

Daily Weather History Graph

Daily Weather History Graph

Search for Another Location

Airport or City:

Trip Planner

Search our weather history database for the weather conditions in past years. The results will help you decide how hot, cold, wet, or windy it might be!

Date:

Astronomy

Jul. 18, 2012 Rise Set
Actual Time 5:39 AM EDT 8:27 PM EDT
Civil Twilight 5:06 AM EDT 8:59 PM EDT
Nautical Twilight 4:25 AM EDT 9:40 PM EDT
Astronomical Twilight 3:38 AM EDT 10:27 PM EDT
Moon 5:11 AM EDT (7/18) 7:54 PM EDT (7/18)
Length of Visible Light 15h 52m
Length of Day
14h 47m
Waning Crescent, 0% of the Moon is Illuminated
Jul 18
Waning Crescent
Jul 19
New
Jul 26
First Quarter
Aug 1
Full
Aug 9
Last Quarter

Hourly Weather History & Observations

Time (EDT) Temp. Heat Index Dew Point Humidity Pressure Visibility Wind Dir Wind Speed Gust Speed Precip Events Conditions
12:54 AM 80.1 °F 83.2 °F 70.0 °F 71% 29.78 in 10.0 mi SSW 6.9 mph - N/A   Clear
1:54 AM 79.0 °F - 70.0 °F 74% 29.78 in 10.0 mi SSW 3.5 mph - N/A   Clear
3:54 AM 75.0 °F - 69.1 °F 82% 29.76 in 8.0 mi SSW 3.5 mph - N/A   Clear
4:54 AM 75.0 °F - 70.0 °F 84% 29.76 in 7.0 mi SSW 3.5 mph - N/A   Clear
5:54 AM 75.0 °F - 69.1 °F 82% 29.77 in 6.0 mi Variable 3.5 mph - N/A   Haze
6:54 AM 77.0 °F - 71.1 °F 82% 29.80 in 7.0 mi SW 3.5 mph - N/A   Clear
7:54 AM 80.1 °F 83.6 °F 71.1 °F 74% 29.82 in 7.0 mi SSW 8.1 mph - N/A   Partly Cloudy
8:54 AM 84.0 °F 89.6 °F 72.0 °F 67% 29.83 in 8.0 mi WSW 4.6 mph - N/A   Scattered Clouds
9:54 AM 88.0 °F 95.6 °F 73.0 °F 61% 29.82 in 9.0 mi Variable 4.6 mph - N/A   Clear
10:54 AM 91.9 °F 99.5 °F 72.0 °F 52% 29.81 in 10.0 mi WSW 6.9 mph - N/A   Clear
11:54 AM 93.9 °F 102.1 °F 72.0 °F 49% 29.80 in 10.0 mi WSW 8.1 mph - N/A   Clear
12:54 PM 95.0 °F 103.2 °F 72.0 °F 47% 29.78 in 10.0 mi West 9.2 mph - N/A   Clear
1:54 PM 91.0 °F 98.2 °F 72.0 °F 53% 29.75 in 10.0 mi SW 9.2 mph - N/A   Partly Cloudy
2:07 PM 93.2 °F 102.4 °F 73.4 °F 52% 29.77 in 1.8 mi SSW 17.3 mph 23.0 mph N/A   Haze
2:21 PM 89.6 °F 98.2 °F 73.4 °F 59% 29.77 in 10.0 mi SSW 12.7 mph - N/A   Scattered Clouds
3:54 PM 82.0 °F 86.7 °F 72.0 °F 71% 29.80 in 10.0 mi WSW 6.9 mph - N/A   Partly Cloudy
4:54 PM 81.0 °F 85.2 °F 72.0 °F 74% 29.82 in 10.0 mi SW 9.2 mph - 0.00 in   Partly Cloudy
5:54 PM 77.0 °F - 73.0 °F 88% 29.84 in 8.0 mi SSE 4.6 mph - 0.04 in   Clear
6:54 PM 78.1 °F - 72.0 °F 81% 29.83 in 10.0 mi SSW 3.5 mph - N/A   Clear
7:54 PM 75.9 °F - 72.0 °F 87% 29.83 in 9.0 mi Calm Calm - N/A   Clear
8:54 PM 75.0 °F - 72.0 °F 90% 29.85 in 10.0 mi Calm Calm - N/A   Clear
9:54 PM 75.0 °F - 72.0 °F 90% 29.88 in 8.0 mi Calm Calm - N/A   Mostly Cloudy
10:54 PM 73.9 °F - 72.0 °F 93% 29.90 in 6.0 mi Calm Calm - N/A   Overcast
11:54 PM 73.9 °F - 72.0 °F 93% 29.91 in 6.0 mi Calm Calm - 0.00 in Rain Light Rain